Back to catalog

IHOPSAT-TD

AliveScienceVLEO
NORAD 44859·PAYLOAD·🇺🇸 United States

Launched Dec 11, 2019 from Satish Dhawan Space Centre

Loading…

Next Passes (next 24 hours)

TLE

FreshSource: Space-Track

Epoch: Sep 14, 2026, 07:09 UTC

1 44859U 19089H   26257.29832628  .00002370  00000-0  13934-3 0  9994
2 44859  36.9660 221.1119 0006328 257.8578 102.1459 15.12215411371488

Track IHOPSAT-TD in real time with AllMySat

Download on the App Store